EW7812 Weather Reports


Display with metric or nautical units.
time (UTC)temp
F
wind
direction
speed
MPH
gust
MPH
rain 1hr
in
rain 24hr
in
rain mn
in
humidity
%
barometer
mb
20210620162647 69 191 2.0 0.0 0.00 0.08 0.00 44 1000.0
20210620162147 69 175 6.0 0.0 0.00 0.08 0.00 43 1000.0
20210620161645 69 104 4.0 0.0 0.00 0.08 0.00 44 1000.0
20210620161146 68 32 3.0 0.0 0.00 0.08 0.00 45 1000.0
20210620160637 67 213 9.0 0.0 0.00 0.08 0.00 45 1000.0
20210620160139 66 198 7.0 0.0 0.00 0.08 0.00 45 1000.7
20210620155654 66 219 12.0 0.0 0.00 0.08 0.00 45 1000.7
20210620155142 66 190 16.0 0.0 0.00 0.08 0.00 46 1001.0
20210620154729 66 218 13.0 0.0 0.00 0.08 0.00 47 1000.7
20210620154247 65 217 10.0 0.0 0.00 0.08 0.00 47 1001.0
20210620153743 65 233 9.0 0.0 0.00 0.08 0.00 48 1000.7
20210620153219 65 197 7.0 0.0 0.00 0.08 0.00 48 1000.7
20210620152714 65 217 2.0 0.0 0.00 0.08 0.00 50 1000.7
20210620152322 65 217 7.0 0.0 0.00 0.08 0.00 50 1001.0
20210620151750 65 175 7.0 0.0 0.00 0.08 0.00 50 1001.0
20210620151213 65 197 8.0 0.0 0.00 0.08 0.00 49 1001.0
20210620150724 65 214 9.0 0.0 0.00 0.08 0.00 49 1001.0
20210620150222 65 199 3.0 0.0 0.00 0.08 0.00 48 1000.3
20210620145743 65 150 12.0 0.0 0.00 0.08 0.00 48 1000.3
20210620145214 65 201 12.0 0.0 0.00 0.08 0.00 47 1000.7
20210620144727 66 229 10.0 0.0 0.00 0.08 0.00 48 1000.3
20210620144217 65 202 5.0 0.0 0.00 0.08 0.00 48 1000.0
20210620143714 65 202 7.0 0.0 0.00 0.08 0.00 47 1000.7
20210620143217 65 199 4.0 0.0 0.00 0.08 0.00 47 1000.3
20210620142719 64 120 1.0 0.0 0.00 0.08 0.00 46 1001.0
20210620142219 64 205 1.0 0.0 0.00 0.08 0.00 48 1001.0
20210620141716 63 121 0.0 0.0 0.00 0.08 0.00 48 1001.0
20210620141218 62 45 0.0 0.0 0.00 0.08 0.00 48 1001.0
20210620140717 62 63 1.0 0.0 0.00 0.08 0.00 47 1001.4
20210620140224 62 69 1.0 0.0 0.00 0.08 0.00 48 1001.0
20210620135714 61 74 1.0 0.0 0.00 0.08 0.00 48 1001.4
20210620135222 60 28 0.0 0.0 0.00 0.08 0.00 48 1001.4
20210620134716 59 360 1.0 0.0 0.00 0.08 0.00 50 1002.0
20210620134213 58 12 5.0 0.0 0.00 0.08 0.00 52 1001.7
20210620133720 57 22 3.0 0.0 0.00 0.08 0.00 54 1002.0
20210620133222 56 13 4.0 0.0 0.00 0.08 0.00 56 1002.0
20210620132722 56 11 3.0 0.0 0.00 0.08 0.00 56 1002.4
20210620132211 55 14 4.0 0.0 0.00 0.08 0.00 58 1002.7
20210620131714 54 28 5.0 0.0 0.00 0.08 0.00 59 1002.7
20210620131210 54 14 5.0 0.0 0.00 0.08 0.00 59 1002.7
20210620130814 54 13 5.0 0.0 0.00 0.08 0.00 58 1003.0
20210620130219 54 11 6.0 0.0 0.00 0.08 0.00 58 1002.7
20210620125712 54 11 4.0 0.0 0.00 0.08 0.00 58 1002.7
20210620125215 54 355 4.0 0.0 0.00 0.08 0.00 57 1002.7
20210620124710 53 360 3.0 0.0 0.00 0.08 0.00 58 1003.0
20210620124213 54 5 7.0 0.0 0.00 0.08 0.00 56 1003.0
20210620123712 54 355 3.0 0.0 0.00 0.08 0.00 55 1003.0
20210620123317 55 5 3.0 0.0 0.00 0.08 0.00 55 1002.7
20210620122713 55 5 6.0 0.0 0.00 0.08 0.00 53 1002.4
20210620122210 55 360 6.0 0.0 0.00 0.08 0.00 53 1002.4
20210620121711 55 22 6.0 0.0 0.00 0.08 0.00 53 1002.4
20210620121214 55 14 7.0 0.0 0.00 0.08 0.00 53 1002.4
20210620120712 55 34 6.0 0.0 0.00 0.08 0.00 53 1002.0
20210620120214 55 9 3.0 0.0 0.00 0.08 0.00 53 1002.7
20210620115710 55 17 6.0 0.0 0.00 0.08 0.00 52 1002.7
20210620115212 55 19 7.0 0.0 0.00 0.08 0.00 52 1002.7
20210620114711 55 338 7.0 0.0 0.00 0.08 0.00 53 1002.7
20210620114214 55 360 6.0 0.0 0.00 0.08 0.00 53 1002.7
20210620113714 55 5 4.0 0.0 0.00 0.08 0.00 53 1002.4
20210620113213 55 5 7.0 0.0 0.00 0.08 0.00 52 1002.4
20210620112714 55 15 9.0 0.0 0.00 0.08 0.00 54 1002.4
20210620112213 55 30 5.0 0.0 0.00 0.08 0.00 52 1002.4
20210620111711 56 17 2.0 0.0 0.00 0.08 0.00 51 1002.4
20210620111316 56 32 3.0 0.0 0.00 0.08 0.00 50 1002.0
20210620110715 56 32 3.0 0.0 0.00 0.08 0.00 49 1003.4
20210620110214 56 34 3.0 0.0 0.00 0.08 0.00 50 1003.7
20210620105715 56 36 2.0 0.0 0.00 0.08 0.00 50 1003.4
20210620105215 56 42 1.0 0.0 0.00 0.08 0.00 50 1003.4
20210620104814 56 31 2.0 0.0 0.00 0.08 0.00 51 1003.4
20210620104214 56 37 5.0 0.0 0.00 0.08 0.00 52 1003.0
20210620103714 56 32 2.0 0.0 0.00 0.08 0.00 51 1003.0
20210620103213 56 28 4.0 0.0 0.00 0.08 0.00 50 1003.0
20210620102815 57 17 4.0 0.0 0.00 0.08 0.00 50 1003.0
20210620102210 57 40 3.0 0.0 0.00 0.08 0.00 49 1003.0
20210620101712 57 29 4.0 0.0 0.00 0.08 0.00 49 1003.0
20210620101212 57 13 5.0 0.0 0.00 0.08 0.00 50 1003.0
20210620100711 57 17 4.0 0.0 0.00 0.08 0.00 49 999.7
20210620100213 56 26 6.0 0.0 0.00 0.08 0.00 50 999.7
20210620095711 57 25 4.0 0.0 0.00 0.08 0.00 50 999.7
20210620095210 57 22 7.0 0.0 0.00 0.08 0.00 49 999.7
20210620094711 58 10 2.0 0.0 0.00 0.08 0.00 48 999.7
20210620094212 58 40 1.0 0.0 0.00 0.08 0.00 49 999.7
20210620093710 58 22 3.0 0.0 0.00 0.08 0.00 48 999.7
20210620093215 58 5 1.0 0.0 0.00 0.08 0.00 48 999.7
20210620092845 58 13 0.0 0.0 0.00 0.08 0.00 48 999.7
20210620092211 58 13 1.0 0.0 0.00 0.08 0.00 48 999.7
20210620091711 59 44 1.0 0.0 0.00 0.08 0.00 46 999.0
20210620091212 59 355 0.0 0.0 0.00 0.08 0.00 47 999.0
20210620090641 59 5 0.0 0.0 0.00 0.08 0.00 46 997.6
20210620090136 59 9 3.0 0.0 0.00 0.08 0.00 46 997.6
20210620085737 59 344 4.0 0.0 0.00 0.08 0.00 46 997.6
20210620085313 60 350 4.0 0.0 0.00 0.08 0.00 44 997.6
20210620084741 61 21 6.0 0.0 0.00 0.08 0.00 43 997.3
20210620084240 62 15 6.0 0.0 0.00 0.08 0.00 41 997.3
20210620083737 63 65 4.0 0.0 0.00 0.08 0.00 40 997.0
20210620083238 64 30 4.0 0.0 0.00 0.08 0.00 38 996.6
20210620082737 65 32 6.0 0.0 0.00 0.08 0.00 38 996.6
20210620082239 66 18 2.0 0.0 0.00 0.08 0.00 36 996.6
20210620081737 67 42 3.0 0.0 0.00 0.08 0.00 36 995.9
20210620081250 68 281 8.0 0.0 0.00 0.08 0.00 34 995.9
20210620080736 68 292 2.0 0.0 0.00 0.08 0.00 34 997.3
20210620080240 68 242 9.0 0.0 0.00 0.08 0.00 33 997.3
20210620075741 68 306 2.0 0.0 0.00 0.08 0.00 33 997.3
20210620075236 69 267 13.0 0.0 0.00 0.08 0.00 33 997.3
20210620074743 69 270 13.0 0.0 0.00 0.08 0.00 33 997.3
20210620074241 69 338 9.0 0.0 0.00 0.08 0.00 33 997.3
20210620073740 69 296 13.0 0.0 0.00 0.08 0.00 33 997.3
20210620073238 70 284 15.0 0.0 0.00 0.08 0.00 32 996.6
20210620072740 70 280 12.0 0.0 0.00 0.08 0.00 32 996.6
20210620072239 70 278 9.0 0.0 0.00 0.08 0.00 32 996.6
20210620071739 70 271 9.0 0.0 0.00 0.08 0.00 32 996.3
20210620071240 70 269 15.0 0.0 0.00 0.08 0.00 32 996.3
20210620070738 70 292 13.0 0.0 0.00 0.08 0.00 32 996.3
20210620070242 70 303 10.0 0.0 0.00 0.08 0.00 31 995.9
20210620065813 70 347 11.0 0.0 0.00 0.08 0.00 31 995.9
20210620065239 69 292 10.0 0.0 0.00 0.08 0.00 33 995.9
20210620064738 67 253 9.0 0.0 0.00 0.08 0.00 35 996.3
20210620064239 66 257 7.0 0.0 0.00 0.08 0.00 36 997.0
20210620063737 66 355 5.0 0.0 0.00 0.08 0.00 37 997.0
20210620063236 67 337 2.0 0.0 0.00 0.08 0.00 37 996.6
20210620062745 68 320 2.0 0.0 0.00 0.08 0.00 36 996.6
20210620062313 68 349 7.0 0.0 0.00 0.08 0.00 35 996.6
20210620061813 68 310 6.0 0.0 0.00 0.08 0.00 35 996.6
20210620061317 69 346 9.0 0.0 0.00 0.08 0.00 34 996.3
20210620060813 70 341 4.0 0.0 0.00 0.08 0.00 32 996.6
20210620060442 70 290 7.0 0.0 0.00 0.08 0.08 32 994.9
20210620055814 70 324 2.0 0.0 0.00 0.08 0.08 32 994.9
20210620055344 69 333 5.0 0.0 0.00 0.08 0.08 33 995.6
20210620054811 68 10 2.0 0.0 0.00 0.08 0.08 34 995.6
20210620054315 68 355 4.0 0.0 0.00 0.08 0.08 35 995.6
20210620053813 68 345 2.0 0.0 0.00 0.08 0.08 35 995.6
20210620053312 68 319 2.0 0.0 0.00 0.08 0.08 36 995.3
20210620052820 67 351 1.0 0.0 0.00 0.08 0.08 37 995.9
20210620052316 66 360 3.0 0.0 0.00 0.08 0.08 37 995.9
20210620051814 66 5 1.0 0.0 0.00 0.08 0.08 37 995.9
20210620051314 66 24 2.0 0.0 0.00 0.08 0.08 38 995.9
20210620050813 66 50 1.0 0.0 0.00 0.08 0.08 38 995.9
20210620050314 65 24 3.0 0.0 0.00 0.08 0.08 39 997.0
20210620045814 65 338 2.0 0.0 0.00 0.08 0.08 41 997.0
20210620045311 65 47 3.0 0.0 0.00 0.08 0.08 40 996.6
20210620044813 66 9 0.0 0.0 0.00 0.08 0.08 40 996.3
20210620044312 66 13 2.0 0.0 0.00 0.08 0.08 39 996.3
20210620043812 66 20 2.0 0.0 0.00 0.08 0.08 39 996.3
20210620043310 66 48 2.0 0.0 0.00 0.08 0.08 39 996.3
20210620042814 66 33 4.0 0.0 0.00 0.08 0.08 39 996.3
20210620042311 66 25 2.0 0.0 0.00 0.08 0.08 40 996.3
20210620041812 67 11 3.0 0.0 0.00 0.08 0.08 40 996.3
20210620041341 67 36 4.0 0.0 0.00 0.08 0.08 39 995.9
20210620040845 67 333 2.0 0.0 0.00 0.08 0.08 38 996.3
20210620040312 67 285 3.0 0.0 0.00 0.08 0.08 40 996.6
20210620035812 66 355 2.0 0.0 0.00 0.08 0.08 41 996.6
20210620035314 66 341 3.0 0.0 0.00 0.08 0.08 41 996.6
20210620034813 67 26 4.0 0.0 0.00 0.08 0.08 40 996.6
20210620034316 67 311 1.0 0.0 0.00 0.08 0.08 42 996.6
20210620033813 68 5 3.0 0.0 0.00 0.08 0.08 41 995.9
20210620033315 68 304 3.0 0.0 0.00 0.08 0.08 40 995.9
20210620032815 69 336 1.0 0.0 0.00 0.08 0.08 39 995.9
20210620032312 70 283 2.0 0.0 0.00 0.08 0.08 36 995.3
20210620031814 70 299 1.0 0.0 0.00 0.08 0.08 38 995.3
20210620031325 69 290 6.0 0.0 0.00 0.08 0.08 38 995.9
20210620030815 69 317 5.0 0.0 0.00 0.08 0.08 39 995.9
20210620030312 69 280 3.0 0.0 0.00 0.08 0.08 40 997.3
20210620025813 69 325 3.0 0.0 0.00 0.08 0.08 42 997.0
20210620025314 69 302 6.0 0.0 0.00 0.08 0.08 40 997.3
20210620024815 69 297 3.0 0.0 0.00 0.08 0.08 42 997.0
20210620024311 68 303 7.0 0.0 0.00 0.08 0.08 41 997.0
20210620023813 69 296 5.0 0.0 0.00 0.08 0.08 42 997.0
20210620023311 69 17 4.0 0.0 0.00 0.08 0.08 40 997.3
20210620022845 69 309 2.0 0.0 0.00 0.08 0.08 41 997.0
20210620022318 70 166 0.0 0.0 0.00 0.08 0.08 42 996.6
20210620021813 70 24 0.0 0.0 0.00 0.08 0.08 40 997.0
20210620021316 70 284 3.0 0.0 0.00 0.08 0.08 39 997.3
20210620020811 70 355 6.0 0.0 0.00 0.08 0.08 40 997.0
20210620020313 70 307 1.0 0.0 0.00 0.08 0.08 40 998.0
20210620015814 70 347 3.0 0.0 0.00 0.08 0.08 40 998.3
20210620015315 71 287 4.0 0.0 0.00 0.08 0.08 40 997.6
20210620014811 71 355 9.0 0.0 0.00 0.08 0.08 40 998.0
20210620014317 71 349 16.0 0.0 0.00 0.08 0.08 40 997.6
20210620013810 71 237 4.0 0.0 0.00 0.08 0.08 38 998.0
20210620013312 72 281 5.0 0.0 0.00 0.08 0.08 38 998.3
20210620012813 72 239 13.0 0.0 0.00 0.08 0.08 38 998.3
20210620012315 72 355 5.0 0.0 0.00 0.08 0.08 39 998.3
20210620011811 72 306 6.0 0.0 0.00 0.08 0.08 39 998.3
20210620011314 72 317 14.0 0.0 0.00 0.08 0.08 40 998.3
20210620010814 72 321 4.0 0.0 0.00 0.08 0.08 40 998.0
20210620010310 71 336 2.0 0.0 0.00 0.08 0.08 46 999.7
20210620005811 70 340 2.0 0.0 0.00 0.08 0.08 43 999.7
20210620005312 70 255 4.0 0.0 0.00 0.08 0.08 46 999.7
20210620004811 70 311 5.0 0.0 0.00 0.08 0.08 46 999.3
20210620004416 69 295 5.0 0.0 0.00 0.08 0.08 47 999.7
20210620003813 69 284 4.0 0.0 0.00 0.08 0.08 48 999.3
20210620003313 69 261 3.0 0.0 0.00 0.08 0.08 48 999.7
20210620002811 69 319 5.0 0.0 0.00 0.08 0.08 49 999.7
20210620002312 70 329 4.0 0.0 0.00 0.08 0.08 49 999.0
20210620001914 70 19 10.0 0.0 0.00 0.08 0.08 49 999.3
20210620001314 69 337 10.0 0.0 0.00 0.08 0.08 50 1000.0
20210620000811 69 360 13.0 0.0 0.00 0.08 0.08 52 1000.0
20210620000316 68 360 6.0 0.0 0.00 0.08 0.08 54 1001.4
20210619235812 68 234 6.0 0.0 0.00 0.08 0.08 53 1001.7
20210619235331 67 286 3.0 0.0 0.01 0.08 0.08 55 1001.7
20210619234814 66 355 7.0 0.0 0.01 0.08 0.08 55 1002.4
20210619234310 65 342 11.0 0.0 0.01 0.08 0.08 59 1002.4
20210619233911 63 263 12.0 0.0 0.01 0.08 0.08 62 1003.0
20210619233317 62 15 12.0 0.0 0.01 0.08 0.08 63 1004.1
20210619232813 61 317 7.0 0.0 0.01 0.08 0.08 66 1003.7
20210619232313 61 350 6.0 0.0 0.01 0.08 0.08 65 1004.4
20210619231811 61 344 13.0 0.0 0.04 0.08 0.08 67 1005.1
20210619231315 61 355 6.0 0.0 0.08 0.08 0.08 67 1005.4
20210619230812 61 327 6.0 0.0 0.08 0.08 0.08 68 1005.1
20210619230312 63 355 24.0 0.0 0.08 0.08 0.08 63 1005.1
20210619225813 64 28 6.0 0.0 0.08 0.08 0.08 60 1005.1
20210619225316 64 292 9.0 0.0 0.07 0.07 0.07 73 1004.7
20210619224814 64 360 2.0 0.0 0.07 0.07 0.07 73 1003.7
20210619224313 65 261 0.0 0.0 0.07 0.07 0.07 70 1003.4
20210619223812 65 30 1.0 0.0 0.07 0.07 0.07 71 1002.7
20210619223314 66 96 1.0 0.0 0.07 0.07 0.07 68 1002.7
20210619222812 68 155 1.0 0.0 0.07 0.07 0.07 63 1001.7
20210619222316 71 88 4.0 0.0 0.07 0.07 0.07 54 1001.4
20210619221742 74 63 3.0 0.0 0.04 0.04 0.04 49 1001.0
20210619221243 74 207 1.0 0.0 0.00 0.00 0.00 41 1000.7
20210619220813 75 220 9.0 0.0 0.00 0.00 0.00 40 999.7
20210619220314 75 179 11.0 0.0 0.00 0.00 0.00 40 999.3
20210619215813 75 130 2.0 0.0 0.00 0.00 0.00 40 999.3
20210619215344 75 135 10.0 0.0 0.00 0.00 0.00 39 999.7
20210619214742 76 168 13.0 0.0 0.00 0.00 0.00 38 999.0
20210619214315 77 101 3.0 0.0 0.00 0.00 0.00 36 999.3
20210619213811 77 155 5.0 0.0 0.00 0.00 0.00 36 999.3
20210619213242 77 143 6.0 0.0 0.00 0.00 0.00 36 999.0
20210619212824 78 90 2.0 0.0 0.00 0.00 0.00 35 999.3
20210619212314 80 68 2.0 0.0 0.00 0.00 0.00 32 999.0
20210619211814 80 26 7.0 0.0 0.00 0.00 0.00 29 998.6
20210619211316 80 311 5.0 0.0 0.00 0.00 0.00 29 998.6
20210619210810 81 321 12.0 0.0 0.00 0.00 0.00 29 998.6
20210619210312 82 322 2.0 0.0 0.00 0.00 0.00 29 998.3
20210619205742 83 67 10.0 0.0 0.00 0.00 0.00 28 997.6
20210619205318 83 355 4.0 0.0 0.00 0.00 0.00 31 997.6
20210619204742 83 33 4.0 0.0 0.00 0.00 0.00 31 997.6
20210619204315 82 65 1.0 0.0 0.00 0.00 0.00 34 998.3
20210619203813 81 340 2.0 0.0 0.00 0.00 0.00 34 998.6
20210619203313 79 46 2.0 0.0 0.00 0.00 0.00 34 999.0
20210619202738 78 344 2.0 0.0 0.00 0.00 0.00 35 999.3
20210619202238 77 64 5.0 0.0 0.00 0.00 0.00 35 999.7
20210619201813 77 40 9.0 0.0 0.00 0.00 0.00 39 999.7
20210619201242 76 355 6.0 0.0 0.00 0.00 0.00 39 1000.0
20210619200740 74 342 11.0 0.0 0.00 0.00 0.00 42 1000.0
20210619200239 73 11 8.0 0.0 0.00 0.00 0.00 41 1000.7
20210619195738 72 355 7.0 0.0 0.00 0.00 0.00 43 1001.0
20210619195241 70 355 5.0 0.0 0.00 0.00 0.00 45 1001.7
20210619194739 69 355 7.0 0.0 0.00 0.00 0.00 45 1002.4
20210619194312 68 336 5.0 0.0 0.00 0.00 0.00 47 1002.7
20210619193737 68 348 6.0 0.0 0.00 0.00 0.00 48 1002.7
20210619193242 68 355 17.0 0.0 0.00 0.00 0.00 47 1002.7
20210619192737 68 279 10.0 0.0 0.00 0.00 0.00 46 1002.7
20210619192242 69 17 8.0 0.0 0.00 0.00 0.00 46 1002.7
20210619191814 72 317 14.0 0.0 0.00 0.00 0.00 43 1002.4
20210619191242 75 9 7.0 0.0 0.00 0.00 0.00 35 1001.4
20210619190736 77 268 7.0 0.0 0.00 0.00 0.00 32 1000.0
20210619190240 78 322 14.0 0.0 0.00 0.00 0.00 31 999.3
20210619185741 79 335 5.0 0.0 0.00 0.00 0.00 30 998.6
20210619185318 80 28 18.0 0.0 0.00 0.00 0.00 28 998.6
20210619184739 80 5 12.0 0.0 0.00 0.00 0.00 27 998.3
20210619184313 81 348 8.0 0.0 0.00 0.00 0.00 26 998.3
20210619183739 81 349 12.0 0.0 0.00 0.00 0.00 28 998.3
20210619183238 81 355 4.0 0.0 0.00 0.00 0.00 28 998.3
20210619182742 82 14 10.0 0.0 0.00 0.00 0.00 27 998.0
20210619182414 82 346 7.0 0.0 0.00 0.00 0.00 27 998.3
20210619181743 82 355 2.0 0.0 0.00 0.00 0.00 27 998.3
20210619181241 82 340 6.0 0.0 0.00 0.00 0.00 27 998.0
20210619180810 82 179 3.0 0.0 0.00 0.00 0.00 28 998.0
20210619180236 81 254 3.0 0.0 0.00 0.00 0.00 27 998.3
20210619175741 82 21 6.0 0.0 0.00 0.00 0.00 28 998.0
20210619175245 81 355 12.0 0.0 0.00 0.00 0.00 27 998.3
20210619174741 81 345 10.0 0.0 0.00 0.00 0.00 29 998.3
20210619174316 80 346 5.0 0.0 0.00 0.00 0.00 27 998.6
20210619173741 80 20 7.0 0.0 0.00 0.00 0.00 28 998.6
20210619173241 80 11 10.0 0.0 0.00 0.00 0.00 27 998.6
20210619172739 79 10 10.0 0.0 0.00 0.00 0.00 28 999.0
20210619172242 79 344 4.0 0.0 0.00 0.00 0.00 29 999.0
20210619171736 80 349 6.0 0.0 0.00 0.00 0.00 29 998.6
20210619171237 80 338 9.0 0.0 0.00 0.00 0.00 28 998.6
20210619170741 80 342 5.0 0.0 0.00 0.00 0.00 29 999.0
20210619170238 80 331 3.0 0.0 0.00 0.00 0.00 29 998.6
20210619165744 80 351 12.0 0.0 0.00 0.00 0.00 29 998.3
20210619165240 80 336 12.0 0.0 0.00 0.00 0.00 28 998.6
20210619164737 80 355 8.0 0.0 0.00 0.00 0.00 29 998.6
20210619164442 79 333 2.0 0.0 0.00 0.00 0.00 27 999.0
20210619163743 80 259 17.0 0.0 0.00 0.00 0.00 27 998.3
20210619163242 80 279 1.0 0.0 0.00 0.00 0.00 28 998.6